Weather History for Prescott, AZ

Change the Weather History Date:

Sunday, November 3, 2013

  Actual Average Record
Temperature  
Mean Temperature 52 °F 50 °F  
Max Temperature 66 °F 66 °F 81 °F (2009)
Min Temperature 37 °F 36 °F 19 °F (1956)
Degree Days  
Heating Degree Days 13    
Month to date heating degree days 41  
Since 1 July heating degree days 427  
Cooling Degree Days 0    
Month to date cooling degree days 0  
Year to date cooling degree days 1127  
Moisture  
Dew Point 22 °F    
Average Humidity 33    
Maximum Humidity 48    
Minimum Humidity 21    
Precipitation  
Precipitation 0.00 in 0.03 in 0.18 in (1957)
Month to date precipitation 0.00 0.09  
Year to date precipitation 10.93 12.18  
Sea Level Pressure  
Sea Level Pressure 29.79 in    
Wind  
Wind Speed 8 mph (SSW)    
Max Wind Speed 20 mph    
Max Gust Speed 25 mph    
Visibility 10 miles    
Events      
T = Trace of Precipitation, MM = Missing Value Source: NWS Daily Summary

Daily Weather History Graph

Daily Weather History Graph

Search for Another Location

Airport:

Trip Planner

Search our weather history database for the weather conditions in past years. The results will help you decide how hot, cold, wet, or windy it might be!

Date:

Astronomy

Nov. 03, 2013 Rise Set
Actual Time 6:52 AM MST 5:33 PM MST
Civil Twilight 6:26 AM MST 5:59 PM MST
Nautical Twilight 5:56 AM MST 6:29 PM MST
Astronomical Twilight 5:26 AM MST 6:59 PM MST
Moon 6:59 AM MST (11/3) 5:53 PM MST (11/3)
Length of Visible Light 11h 33m
Length of Day
10h 41m
Waxing Crescent, 0% of the Moon is Illuminated
Nov 3
Waxing Crescent
Nov 9
First Quarter
Nov 17
Full
Nov 25
Last Quarter
Dec 2
New

Hourly Weather History & Observations

Time (MST) Temp. Windchill Dew Point Humidity Pressure Visibility Wind Dir Wind Speed Gust Speed Precip Events Conditions
12:53 AM 45.0 °F 40.6 °F 18.0 °F 34% 29.80 in 10.0 mi South 8.1 mph - N/A   Partly Cloudy
1:53 AM 46.0 °F 43.9 °F 17.1 °F 31% 29.79 in 10.0 mi South 4.6 mph - N/A   Clear
2:53 AM 48.0 °F - 17.1 °F 29% 29.78 in 10.0 mi SSW 6.9 mph - N/A   Clear
3:53 AM 43.0 °F 41.3 °F 18.0 °F 37% 29.80 in 10.0 mi SSE 3.5 mph - N/A   Clear
4:53 AM 42.1 °F - 19.9 °F 41% 29.79 in 10.0 mi Calm Calm - N/A   Clear
5:53 AM 44.1 °F - 19.9 °F 38% 29.81 in 10.0 mi Calm Calm - N/A   Clear
6:53 AM 37.9 °F - 19.9 °F 48% 29.85 in 10.0 mi Calm Calm - N/A   Clear
7:53 AM 44.1 °F 42.5 °F 21.9 °F 42% 29.85 in 10.0 mi SSE 3.5 mph - N/A   Clear
8:53 AM 55.0 °F - 21.0 °F 27% 29.84 in 10.0 mi East 4.6 mph - N/A   Clear
9:53 AM 62.1 °F - 23.0 °F 22% 29.82 in 10.0 mi SW 11.5 mph - N/A   Mostly Cloudy
10:53 AM 63.0 °F - 25.0 °F 24% 29.81 in 10.0 mi SSW 12.7 mph - N/A   Partly Cloudy
11:53 AM 64.0 °F - 25.0 °F 23% 29.77 in 10.0 mi South 13.8 mph - N/A   Clear
12:53 PM 64.9 °F - 25.0 °F 22% 29.76 in 10.0 mi SW 15.0 mph 23.0 mph N/A   Clear
1:53 PM 64.9 °F - 25.0 °F 22% 29.74 in 10.0 mi SW 15.0 mph - N/A   Partly Cloudy
2:53 PM 64.9 °F - 25.0 °F 22% 29.73 in 10.0 mi SW 15.0 mph 21.9 mph N/A   Partly Cloudy
3:53 PM 63.0 °F - 24.1 °F 23% 29.75 in 10.0 mi SW 9.2 mph 18.4 mph N/A   Clear
4:53 PM 61.0 °F - 24.1 °F 24% 29.77 in 10.0 mi SW 8.1 mph - N/A   Clear
5:53 PM 54.0 °F - 24.1 °F 31% 29.78 in 10.0 mi WSW 6.9 mph - N/A   Clear
6:53 PM 50.0 °F - 24.1 °F 36% 29.82 in 10.0 mi SSW 5.8 mph - N/A   Clear
7:53 PM 48.0 °F - 23.0 °F 37% 29.80 in 10.0 mi South 8.1 mph - N/A   Clear
8:53 PM 44.1 °F 40.1 °F 23.0 °F 43% 29.79 in 10.0 mi SSW 6.9 mph - N/A   Clear
9:53 PM 44.1 °F 39.5 °F 21.9 °F 42% 29.78 in 10.0 mi South 8.1 mph - N/A   Clear
10:53 PM 42.1 °F 37.7 °F 21.9 °F 45% 29.76 in 10.0 mi SSW 6.9 mph - N/A   Clear
11:53 PM 39.9 °F 33.9 °F 21.9 °F 49% 29.76 in 10.0 mi SSW 9.2 mph - N/A   Clear